• In Latvia
  • List of Countries
  • For 7 days
  • Water Temperature
  • Satellite Maps
  • Weather Map
  • Weather Widgets
  • user-avatar
    Login

    Hourly Weather Ainazi

    Today, 21 October, Saturday

    Time Temperature Precipitation Wind Pressure Humidity
    00:00 +2°C° 0 mm 3 mps 766 mmHg 90%
    01:00 +1°C° 0 mm 3 mps 766 mmHg 91%
    02:00 0°C° 0 mm 4 mps 766 mmHg 92%
    03:00 0°C° 0 mm 4 mps 766 mmHg 93%
    04:00 0°C° 0 mm 4 mps 766 mmHg 93%
    05:00 -1°C° 0 mm 4 mps 766 mmHg 93%
    06:00 -1°C° 0 mm 4 mps 766 mmHg 93%
    07:00 -1°C° 0 mm 4 mps 766 mmHg 93%
    08:00 -1°C° 0 mm 4 mps 766 mmHg 93%
    09:00 0°C° 0 mm 4 mps 766 mmHg 85%
    10:00 +3°C° 0 mm 4 mps 766 mmHg 78%
    11:00 +4°C° 0 mm 4 mps 766 mmHg 70%
    12:00 +5°C° 0 mm 4 mps 766 mmHg 67%
    13:00 +5°C° 0 mm 4 mps 766 mmHg 64%
    14:00 +6°C° 0 mm 4 mps 766 mmHg 61%
    15:00 +5°C° 0 mm 4 mps 765 mmHg 67%
    16:00 +4°C° 0 mm 3 mps 765 mmHg 72%
    17:00 +3°C° 0 mm 3 mps 765 mmHg 77%
    18:00 +2°C° 0 mm 3 mps 766 mmHg 80%
    19:00 +2°C° 0 mm 3 mps 766 mmHg 83%
    20:00 +1°C° 0 mm 3 mps 766 mmHg 86%
    21:00 +1°C° 0 mm 3 mps 766 mmHg 87%
    22:00 0°C° 0 mm 3 mps 766 mmHg 88%
    23:00 0°C° 0 mm 3 mps 766 mmHg 88%

    Tomorrow, 22 October, Sunday

    Time Temperature Precipitation Wind Pressure Humidity
    00:00 +1°C° 0 mm 2 mps 766 mmHg 88%
    01:00 +1°C° 0 mm 2 mps 766 mmHg 88%
    02:00 -1°C° 0 mm 2 mps 766 mmHg 88%
    03:00 -1°C° 0 mm 2 mps 766 mmHg 88%
    04:00 -1°C° 0 mm 2 mps 766 mmHg 88%
    05:00 -1°C° 0 mm 2 mps 765 mmHg 87%
    06:00 -1°C° 0 mm 2 mps 765 mmHg 86%
    07:00 -1°C° 0 mm 2 mps 765 mmHg 85%
    08:00 +1°C° 0 mm 2 mps 765 mmHg 84%
    09:00 +2°C° 0 mm 2 mps 765 mmHg 77%
    10:00 +4°C° 0 mm 2 mps 765 mmHg 70%
    11:00 +5°C° 0 mm 2 mps 765 mmHg 62%
    12:00 +6°C° 0 mm 2 mps 765 mmHg 60%
    13:00 +6°C° 0 mm 2 mps 764 mmHg 58%
    14:00 +7°C° 0 mm 1 mps 764 mmHg 55%
    15:00 +6°C° 0 mm 1 mps 764 mmHg 61%
    16:00 +5°C° 0 mm 1 mps 764 mmHg 67%
    17:00 +4°C° 0 mm 1 mps 764 mmHg 73%
    18:00 +3°C° 0 mm 1 mps 764 mmHg 76%
    19:00 +2°C° 0 mm 2 mps 764 mmHg 79%
    20:00 +1°C° 0 mm 2 mps 764 mmHg 82%
    21:00 +1°C° 0 mm 2 mps 764 mmHg 84%
    22:00 +1°C° 0 mm 2 mps 764 mmHg 85%
    23:00 +1°C° 0 mm 2 mps 764 mmHg 87%

    Day after tomorrow, 23 October, Monday

    Time Temperature Precipitation Wind Pressure Humidity
    00:00 +1°C° 0 mm 2 mps 764 mmHg 87%
    01:00 -1°C° 0 mm 2 mps 764 mmHg 87%
    02:00 -1°C° 0 mm 2 mps 764 mmHg 88%
    03:00 -1°C° 0 mm 2 mps 764 mmHg 88%
    04:00 -1°C° 0 mm 3 mps 764 mmHg 89%
    05:00 -1°C° 0 mm 3 mps 764 mmHg 89%
    06:00 -1°C° 0 mm 3 mps 765 mmHg 90%
    07:00 -1°C° 0 mm 3 mps 765 mmHg 90%
    08:00 0°C° 0 mm 3 mps 765 mmHg 91%
    09:00 0°C° 0 mm 4 mps 766 mmHg 85%
    10:00 +1°C° 0 mm 4 mps 766 mmHg 79%
    11:00 +3°C° 0 mm 4 mps 766 mmHg 73%
    12:00 +3°C° 0 mm 4 mps 767 mmHg 71%
    13:00 +3°C° 0 mm 5 mps 767 mmHg 69%
    14:00 +3°C° 0 mm 5 mps 767 mmHg 67%
    15:00 +2°C° 0 mm 5 mps 768 mmHg 70%
    16:00 +1°C° 0 mm 5 mps 768 mmHg 73%
    17:00 0°C° 0 mm 5 mps 768 mmHg 76%
    18:00 0°C° 0 mm 5 mps 769 mmHg 76%
    19:00 -1°C° 0 mm 5 mps 769 mmHg 76%
    20:00 -2°C° 0 mm 6 mps 770 mmHg 77%
    21:00 -2°C° 0 mm 5 mps 770 mmHg 78%
    22:00 -2°C° 0 mm 5 mps 771 mmHg 79%
    23:00 -2°C° 0 mm 5 mps 771 mmHg 81%

    24 October, Tuesday

    Time Temperature Precipitation Wind Pressure Humidity
    00:00 -3°C° 0 mm 4 mps 772 mmHg 82%
    01:00 -3°C° 0 mm 4 mps 772 mmHg 83%
    02:00 -3°C° 0 mm 4 mps 773 mmHg 83%
    03:00 -3°C° 0 mm 4 mps 773 mmHg 84%
    04:00 -3°C° 0 mm 4 mps 773 mmHg 85%
    05:00 -3°C° 0 mm 4 mps 774 mmHg 85%
    06:00 -3°C° 0 mm 4 mps 774 mmHg 85%
    07:00 -3°C° 0 mm 4 mps 774 mmHg 84%
    08:00 -3°C° 0 mm 4 mps 775 mmHg 84%
    09:00 -2°C° 0 mm 4 mps 775 mmHg 77%
    10:00 0°C° 0 mm 4 mps 775 mmHg 70%
    11:00 +1°C° 0 mm 4 mps 776 mmHg 63%
    12:00 +2°C° 0 mm 3 mps 776 mmHg 60%
    13:00 +3°C° 0 mm 3 mps 776 mmHg 58%
    14:00 +3°C° 0 mm 3 mps 776 mmHg 56%
    15:00 +2°C° 0 mm 3 mps 776 mmHg 61%
    16:00 +1°C° 0 mm 3 mps 776 mmHg 66%
    17:00 0°C° 0 mm 3 mps 776 mmHg 72%
    18:00 0°C° 0 mm 3 mps 777 mmHg 74%
    19:00 -1°C° 0 mm 3 mps 777 mmHg 77%
    20:00 -1°C° 0 mm 3 mps 777 mmHg 79%
    21:00 -1°C° 0 mm 3 mps 778 mmHg 80%
    22:00 -1°C° 0 mm 3 mps 778 mmHg 81%
    23:00 -1°C° 0 mm 3 mps 778 mmHg 81%

    25 October, Wednesday

    Time Temperature Precipitation Wind Pressure Humidity
    00:00 -2°C° 0 mm 3 mps 778 mmHg 81%
    01:00 -2°C° 0 mm 3 mps 778 mmHg 81%
    02:00 -2°C° 0 mm 3 mps 779 mmHg 80%
    03:00 -2°C° 0 mm 3 mps 779 mmHg 80%
    04:00 -2°C° 0 mm 3 mps 779 mmHg 79%
    05:00 -2°C° 0 mm 3 mps 779 mmHg 79%
    06:00 -2°C° 0 mm 3 mps 779 mmHg 78%
    07:00 -3°C° 0 mm 4 mps 779 mmHg 77%
    08:00 -3°C° 0 mm 4 mps 779 mmHg 76%
    09:00 -1°C° 0 mm 4 mps 779 mmHg 69%
    10:00 0°C° 0 mm 5 mps 779 mmHg 63%
    11:00 +1°C° 0 mm 5 mps 779 mmHg 56%
    12:00 +2°C° 0 mm 5 mps 779 mmHg 54%
    13:00 +2°C° 0 mm 5 mps 778 mmHg 52%
    14:00 +3°C° 0 mm 5 mps 778 mmHg 50%
    15:00 +2°C° 0 mm 5 mps 778 mmHg 55%
    16:00 +1°C° 0 mm 6 mps 777 mmHg 59%
    17:00 -1°C° 0 mm 6 mps 777 mmHg 64%
    18:00 -2°C° 0 mm 6 mps 777 mmHg 65%
    19:00 -2°C° 0 mm 6 mps 777 mmHg 66%
    20:00 -2°C° 0 mm 7 mps 776 mmHg 66%
    21:00 -2°C° 0 mm 7 mps 776 mmHg 65%
    22:00 -1°C° 0 mm 8 mps 776 mmHg 64%
    23:00 -1°C° 0 mm 8 mps 776 mmHg 63%

    26 October, Thursday

    Time Temperature Precipitation Wind Pressure Humidity
    00:00 -1°C° 0 mm 8 mps 775 mmHg 63%
    01:00 -1°C° 0 mm 8 mps 775 mmHg 63%
    02:00 -1°C° 0 mm 8 mps 774 mmHg 63%
    03:00 0°C° 0 mm 8 mps 774 mmHg 63%
    04:00 0°C° 0 mm 8 mps 773 mmHg 64%
    05:00 0°C° 0 mm 9 mps 772 mmHg 64%
    06:00 0°C° 0.1 mm 9 mps 772 mmHg 67%
    07:00 0°C° 0.1 mm 8 mps 772 mmHg 70%
    08:00 0°C° 0.1 mm 8 mps 771 mmHg 74%
    09:00 0°C° 0.1 mm 8 mps 771 mmHg 75%
    10:00 +1°C° 0.1 mm 9 mps 771 mmHg 76%
    11:00 +1°C° 0.1 mm 9 mps 771 mmHg 77%
    12:00 +1°C° 0.1 mm 8 mps 770 mmHg 77%
    13:00 +2°C° 0.1 mm 8 mps 770 mmHg 77%
    14:00 +2°C° 0.1 mm 8 mps 770 mmHg 77%
    15:00 +3°C° 0.1 mm 7 mps 770 mmHg 79%
    16:00 +3°C° 0.1 mm 7 mps 770 mmHg 82%
    17:00 +3°C° 0.1 mm 7 mps 769 mmHg 84%
    18:00 +3°C° 0.1 mm 6 mps 769 mmHg 86%
    19:00 +4°C° 0.1 mm 6 mps 769 mmHg 88%
    20:00 +4°C° 0.1 mm 6 mps 769 mmHg 89%
    21:00 +5°C° 0 mm 5 mps 769 mmHg 90%
    22:00 +5°C° 0 mm 5 mps 769 mmHg 91%
    23:00 +5°C° 0 mm 5 mps 769 mmHg 92%
    Show more